Terminal Aerodrome Forecast
Issued by NWS Grand Forks, ND

Home | Current Version | Previous Version | Text Only | Print | Product List | Glossary Off
Versions: 1 2 3 4 5 6 7 8 9 10 11 12 13 14 15 16 17 18

000
FTUS43 KFGF 030646 AAA
TAFFAR
TAF AMD
KFAR 030646Z 0307/0406 14010KT P6SM BKN006
      TEMPO 0308/0312 3SM BR OVC004
     FM031500 15017KT P6SM SKC=

USA.gov is the U.S. government's official web portal to all federal, state and local government web resources and services.